Regional Weather Roundup
Issued by NWS Upton, NY

Current Version | Previous Version | Graphics & Text | Print | Product List | Glossary Off
Versions: 1 2 3 4 5 6 7 8 9 10 11 12 13 14 15 16 17 18 19 20 21 22 23 24 25 26 27 28 29 30 31 32 33 34 35 36 37 38 39 40 41 42 43 44 45 46 47 48 49 50

000
ASUS41 KOKX 291108
RWROKX

REGIONAL WEATHER ROUNDUP
NATIONAL WEATHER SERVICE NEW YORK NY
700 AM EDT WED JUL 29 2015

NOTE: "FAIR" INDICATES FEW OR NO CLOUDS BELOW 12,000 FEET WITH NO
SIGNIFICANT WEATHER AND/OR OBSTRUCTIONS TO VISIBILITY.

NYZ071-072-176-178-NJZ106-104-291200-
NEW YORK CITY METRO AREA


CITY           SKY/WX    TMP DP  RH WIND       PRES   REMARKS
CENTRAL PARK   SUNNY     79  66  64 W6        30.00R
LAGUARDIA APRT PTSUNNY   79  67  66 NW5       29.97R
KENNEDY INTL   MOSUNNY   81  70  69 VRB3      29.98R
NEWARK/LIBERTY MOSUNNY   79  67  66 VRB3      29.98R
BRNX BOT. GARD   N/A     77  64  65 NE1       29.99S
TETERBORO      SUNNY     76  65  68 NW3       29.97R
$$

NYZ177-179-078>081-291200-
LONG ISLAND NEW YORK

CITY           SKY/WX    TMP DP  RH WIND       PRES   REMARKS
FARMINGDALE    SUNNY     77  71  82 CALM      29.97S
ISLIP          PTSUNNY   75  72  90 CALM      29.96R
SHIRLEY        SUNNY     73  72  96 CALM      29.98R FOG
WESTHAMPTON    SUNNY     67  65  93 CALM      29.99R FOG
MONTAUK POINT    N/A     76  71  85 CALM      29.98R
$$

NYZ052-065-067-291200-
HUDSON VALLEY

CITY           SKY/WX    TMP DP  RH WIND       PRES   REMARKS
WHITE PLAINS   SUNNY     74  68  81 NW5       29.98S
NEWBURGH       SUNNY     68  66  94 CALM      30.01
MONTGOMERY     SUNNY     67  65  93 CALM      30.01R
POUGHKEEPSIE   MOSUNNY   69  65  86 CALM      30.00R
ALBANY         PTSUNNY   69  64  84 CALM      30.00R
$$

NJZ001-105-106-008-010-013-015-019>022-104-291200-
NEW JERSEY

CITY           SKY/WX    TMP DP  RH WIND       PRES   REMARKS
NEWARK/LIBERTY MOSUNNY   79  67  66 VRB3      29.98R
TETERBORO      SUNNY     76  65  68 NW3       29.97R
CALDWELL       SUNNY     71  66  84 CALM      29.99R
MORRISTOWN     MOSUNNY   70  68  94 CALM      29.99S
SOMERVILLE     SUNNY     67  64  90 CALM      29.98R
SUSSEX         SUNNY     66  64  93 CALM      30.02R
ANDOVER          N/A     65  65 100 CALM      30.03R
TRENTON        SUNNY     73  69  87 NW3       29.98R
MILLVILLE      SUNNY     70  68  93 CALM      30.00R FOG
ATLANTIC CITY  SUNNY     74  72  93 CALM      29.99R
WRIGHTSTOWN    FOG       70  70 100 CALM      29.96S VSB 3/4
TOMS RIVER     SUNNY     70  66  88 CALM      29.99R
BELMAR         SUNNY     72  66  83 W5        29.98S
$$

PAZ047>061-062-071-291200-
EASTERN PENNSYLVANIA

CITY           SKY/WX    TMP DP  RH WIND       PRES   REMARKS
PHILADELPHIA   MOSUNNY   78  72  81 CALM      29.99R
ALLENTOWN      SUNNY     69  66  90 NW3       30.01R
SCRANTON       SUNNY     67  62  84 E6        30.04S
$$

CTZ002-004>006-009-010-012-RIZ004-006-007-MAZ004-011-015-291200-
SOUTHERN NEW ENGLAND
 IN CT

CITY           SKY/WX    TMP DP  RH WIND       PRES   REMARKS
BRADLEY INTL   PTSUNNY   71  65  81 CALM      29.97R
HARTFORD       SUNNY     72  69  90 CALM      29.97R
DANBURY        SUNNY     68  64  87 CALM      30.01R FOG
WTRBRY/OXFORD  PTSUNNY   72  63  73 CALM      30.01S
BRIDGEPORT     SUNNY     75  70  84 CALM      29.97R
MERIDEN        SUNNY     71  67  87 CALM      29.98R
NEW HAVEN      MOSUNNY   72  70  93 CALM      29.97R
CHESTER        FAIR      72  68  88 CALM      29.99R
GROTON         SUNNY     73  69  87 CALM      29.96R
WILLIMANTIC    SUNNY     68  65  90 CALM      29.98R

 IN RI

CITY           SKY/WX    TMP DP  RH WIND       PRES   REMARKS
PROVIDENCE     MOSUNNY   73  69  87 CALM      29.97R
BLOCK ISLAND   MOSUNNY   75  70  83 NW3       29.98R
WESTERLY       SUNNY     70  67  90 CALM      29.97R

 IN MA

CITY           SKY/WX    TMP DP  RH WIND       PRES   REMARKS
BOSTON         MOSUNNY   76  67  73 W3        29.95S
WORCESTER      SUNNY     73  63  70 W10       30.01R
WESTFIELD      FOG       67  65  93 CALM      29.98R VSB 1/2
PROVINCETOWN   SUNNY     70  64  83 W3        29.96R
NANTUCKET      SUNNY     74  71  91 NW6       29.95S
$$

ANZ330-335-338-340-345-350-353-355-291200-
COASTAL MARINE OBSERVATIONS


STATION/POSITION TIME  SKY/WX   TEMP    WIND        PRES    VSBY  WAVE
                                AIR SEA DIR/SP/G                  HT/PER
                 (UTC)          (F)     (DEG/KT/KT) (MB)    (MI)  (FT/S)
NY HARB ENTRANCE 1050            76 76  270/  6/  6 1014.5          2/11
4S FIRE IS       NOT AVBL
20S FIRE ISLAND  1050            75 74  260/  4/  6 1014.5          2/ 7
GREAT SOUTH BAY  1000            77 80  280/  8/  8   N/A
23SW MTP         1050            73 72  290/  4/  6 1014.4          2/ 8
HUDSON CANYON    NOT AVBL
KINGS POINT      1000            77 72     CALM     1013.9
CENTRAL LI SOUND NOT AVBL
EASTERN LI SOUND 1000            70 70   20/  4/  6   N/A
ROBBINS REEF     1000            77     270/  8/  9 1013.6
$$


>>>>>>>>>>>>>>>>>>>>>>>>>>>> KEY <<<<<<<<<<<<<<<<<<<<<<<<<<<
>                                                          <
>     SKY/WX - SKY CONDITION/PRESENT WEATHER               <
>     TMP    - TEMPERATURE IN FAHRENHEIT                   <
>     DP     - DEWPOINT IN FAHRENHEIT                      <
>     RH     - RELATIVE HUMIDITY IN PERCENT                <
>     WIND   - DIRECTION AND SPEED IN MPH                  <
>     PRES   - MEAN SEA LEVEL PRESSURE IN INCHES OF HG     <
>     WCI    - WIND CHILL INDEX                            <
>     VSB    - VISIBILITY IN MILES                         <
>     HX     - HEAT INDEX                                  <
>     TC     - TEMPERATURE IN CELSIUS                      <
>     VRB    - VARIABLE WIND DIRECTION                     <
>                                                          <
>>>>>>>>>>>>>>>>>>>>>>>>>>>> KEY <<<<<<<<<<<<<<<<<<<<<<<<<<<





USA.gov is the U.S. government's official web portal to all federal, state and local government web resources and services.